コワルスキー彗星

P/2019 O1 ( Kowalski )

English version
Home page
Updated on July 29, 2019

---------------------------------------------------------------------

・ プロフィール

検出日 2019年7月27日
検出光度 20.0等
検出者 Hidetaka Sato (Tokyo, Japan)

・ 軌道要素

Epoch 2019 Oct. 4.0 TT = JDT 2458760.5                                          
T 2019 Oct. 11.41154 TT                                 MPCLINUX                
q   1.1163585            (2000.0)            P               Q                  
n   0.19936174     Peri.   37.64358     +0.84867457     -0.52876215             
a   2.9020720      Node   354.23499     +0.44925531     +0.73334979             
e   0.6153236      Incl.    7.28121     +0.27914360     +0.42732737             
P   4.94                                                                        
From 165 observations 2014 Oct. 18-2019 July 28, mean residual 0".6.            

・ 星図

・ 光度変化

        m1 = 19.0 + 5 logΔ + 10.0 log r(t - 30)

---------------------------------------------------------------------

軌道要素はM.P.E.C. 2019-O84に掲載されたものです。
星図はステラナビゲータ Ver.10 (アストロアーツ) で作成したものです。
光度グラフはComet for Windowsで作成したものです。

---------------------------------------------------------------------

Copyright(C) Seiichi Yoshida (comet@aerith.net). All rights reserved.